Simultaneous Nadir Overpasses (SNOs) Predictions

Prediction of SNOs between METOP-B and NOAA-19 Satellite Orbit:

Table of predicted SNOs for the next 14.0 days since TLE Epoch: 12/31/2016
Index Date (METOP-B) Time (METOP-B) Lat,Lon (METOP-B) SZA (METOP-B ) Date (NOAA-19) Time (NOAA-19) Lat,Lon (NOAA-19) SZA (NOAA-19 ) Distance(km) Time Diff (sec)
1 01/04/2017 13:05:36 76.73, -13.27 99.32 01/04/2017 13:04:22 76.76, -13.60 99.35 9.13 74
2 01/04/2017 13:56:19 -76.68, 153.87 80.74 01/04/2017 13:55:26 -76.70, 153.86 80.72 2.38 53
3 01/04/2017 14:46:59 76.66, -38.86 99.24 01/04/2017 14:46:22 76.68, -38.79 99.26 2.74 37
4 01/04/2017 15:37:41 -76.66, 128.46 80.77 01/04/2017 15:37:27 -76.67, 128.49 80.76 1.28 14
5 01/04/2017 16:28:21 76.64, -64.28 99.22 01/04/2017 16:28:23 76.65, -64.16 99.22 3.14 2
6 01/04/2017 17:19:03 -76.64, 103.04 80.80 01/04/2017 17:19:28 -76.63, 103.13 80.80 2.37 25
7 01/04/2017 18:09:43 76.62, -89.69 99.19 01/04/2017 18:10:25 76.66, -89.70 99.22 3.89 42
8 01/04/2017 19:00:25 -76.62, 77.62 80.82 01/04/2017 19:01:30 -76.64, 77.59 80.80 2.72 65
9 01/04/2017 19:51:11 76.33,-116.11 98.88 01/04/2017 19:52:20 76.36,-114.03 98.93 54.66 69




NCC Satellite Simultaneous Nadir Overpasses (SNOs) Prediction Service
